Time,TemperatureF,DewpointF,PressureIn,WindDirection,WindDirectionDegrees,WindSpeedMPH,WindSpeedGustMPH,Humidity,HourlyPrecipIn,Conditions,Clouds,dailyrainin,SoftwareType,DateUTC
2013-05-14 00:00:00,38.9,29.8,30.08,South,184,0.0,0.0,70,0.00,,SCT,0.00,VWS V14.00,2013-05-14 04:00:00,
2013-05-14 00:02:00,41.4,34.8,30.11,WSW,239,1.6,3.3,77,0.00,,SCT,0.01,VWS V14.00,2013-05-14 04:02:00,
2013-05-14 00:27:00,41.0,34.7,30.11,SSE,156,0.5,3.3,78,0.00,,SCT,0.00,VWS V14.00,2013-05-14 04:27:00,
2013-05-14 00:32:00,41.0,34.8,30.11,SE,129,0.7,3.3,78,0.00,,SCT,0.00,VWS V14.00,2013-05-14 04:32:00,
2013-05-14 00:37:00,41.0,34.8,30.11,SE,129,0.7,3.3,78,0.00,,SCT,0.00,VWS V14.00,2013-05-14 04:37:00,
2013-05-14 01:02:00,40.6,34.6,30.12,SW,228,1.7,3.3,79,0.00,,SCT,0.00,VWS V14.00,2013-05-14 05:02:00,
2013-05-14 01:03:00,40.6,34.6,30.12,SW,228,1.7,3.3,79,0.00,,SCT,0.00,VWS V14.00,2013-05-14 05:03:00,
2013-05-14 01:08:00,40.6,34.6,30.12,SW,228,1.7,3.3,79,0.00,,SCT,0.00,VWS V14.00,2013-05-14 05:08:00,
2013-05-14 01:32:00,39.4,33.8,30.13,SW,217,0.0,3.3,80,0.00,,SCT,0.00,VWS V14.00,2013-05-14 05:32:00,
2013-05-14 01:33:00,39.4,33.8,30.13,SW,217,0.0,3.3,80,0.00,,SCT,0.00,VWS V14.00,2013-05-14 05:33:00,
2013-05-14 01:38:00,39.4,33.8,30.13,SW,217,0.0,3.3,80,0.00,,SCT,0.00,VWS V14.00,2013-05-14 05:38:00,
2013-05-14 02:08:00,37.1,32.7,30.13,South,181,0.0,3.3,84,0.00,,SCT,0.00,VWS V14.00,2013-05-14 06:08:00,
2013-05-14 02:10:00,37.1,32.7,30.13,South,181,0.0,3.3,84,0.00,,SCT,0.00,VWS V14.00,2013-05-14 06:10:00,
2013-05-14 02:13:00,37.1,32.7,30.13,South,181,0.0,3.3,84,0.00,,SCT,0.00,VWS V14.00,2013-05-14 06:13:00,
2013-05-14 02:18:00,37.1,32.7,30.13,South,181,0.0,3.3,84,0.00,,SCT,0.00,VWS V14.00,2013-05-14 06:18:00,
2013-05-14 02:58:00,34.9,31.9,30.14,South,181,0.0,3.3,88,0.00,,SCT,0.00,VWS V14.00,2013-05-14 06:58:00,
2013-05-14 02:59:00,34.9,31.9,30.14,South,181,0.0,3.3,88,0.00,,SCT,0.00,VWS V14.00,2013-05-14 06:59:00,
2013-05-14 03:03:00,34.9,31.9,30.14,South,181,0.0,3.3,88,0.00,,SCT,0.00,VWS V14.00,2013-05-14 07:03:00,
2013-05-14 03:08:00,34.9,31.9,30.14,South,181,0.0,3.3,88,0.00,,SCT,0.00,VWS V14.00,2013-05-14 07:08:00,
2013-05-14 03:33:00,34.1,31.5,30.15,South,180,0.0,3.3,90,0.00,,SCT,0.00,VWS V14.00,2013-05-14 07:33:00,
2013-05-14 03:38:00,34.1,31.5,30.15,South,180,0.0,3.3,90,0.00,,SCT,0.00,VWS V14.00,2013-05-14 07:38:00,
2013-05-14 03:47:00,33.7,31.1,30.15,South,180,0.0,3.3,90,0.00,,SCT,0.00,VWS V14.00,2013-05-14 07:47:00,
2013-05-14 03:48:00,33.7,31.1,30.15,South,180,0.0,3.3,90,0.00,,SCT,0.00,VWS V14.00,2013-05-14 07:48:00,
2013-05-14 03:53:00,33.7,31.1,30.15,South,180,0.0,3.3,90,0.00,,SCT,0.00,VWS V14.00,2013-05-14 07:53:00,
2013-05-14 04:02:00,33.7,31.1,30.15,SE,141,0.0,3.3,90,0.00,,SCT,0.00,VWS V14.00,2013-05-14 08:02:00,
2013-05-14 04:03:00,33.7,31.1,30.15,SE,141,0.0,3.3,90,0.00,,SCT,0.00,VWS V14.00,2013-05-14 08:03:00,
2013-05-14 04:08:00,33.7,31.1,30.15,SE,141,0.0,3.3,90,0.00,,SCT,0.00,VWS V14.00,2013-05-14 08:08:00,
2013-05-14 04:31:00,33.8,31.1,30.15,SE,141,0.0,3.3,90,0.00,,SCT,0.00,VWS V14.00,2013-05-14 08:31:00,
2013-05-14 04:33:00,33.8,31.1,30.15,SE,141,0.0,3.3,90,0.00,,SCT,0.00,VWS V14.00,2013-05-14 08:33:00,
2013-05-14 04:38:00,33.8,31.1,30.15,SE,141,0.0,3.3,90,0.00,,SCT,0.00,VWS V14.00,2013-05-14 08:38:00,
2013-05-14 04:48:00,33.4,30.6,30.15,SE,141,0.0,3.3,89,0.00,,SCT,0.00,VWS V14.00,2013-05-14 08:48:00,
2013-05-14 04:53:00,33.4,30.6,30.15,SE,141,0.0,3.3,89,0.00,,SCT,0.00,VWS V14.00,2013-05-14 08:53:00,
2013-05-14 04:58:00,33.1,30.4,30.16,SE,141,0.0,3.3,90,0.00,,SCT,0.00,VWS V14.00,2013-05-14 08:58:00,
2013-05-14 05:03:00,33.1,30.4,30.16,SE,141,0.0,0.0,90,0.00,,SCT,0.00,VWS V14.00,2013-05-14 09:03:00,
2013-05-14 05:08:00,32.8,30.1,30.16,SE,141,0.0,0.0,90,0.00,,SCT,0.00,VWS V14.00,2013-05-14 09:08:00,
2013-05-14 05:10:00,32.8,30.1,30.16,SE,141,0.0,0.0,90,0.00,,SCT,0.00,VWS V14.00,2013-05-14 09:10:00,
2013-05-14 05:13:00,32.8,30.1,30.16,SE,141,0.0,0.0,90,0.00,,SCT,0.00,VWS V14.00,2013-05-14 09:13:00,
2013-05-14 05:18:00,32.8,30.1,30.16,SE,141,0.0,0.0,90,0.00,,SCT,0.00,VWS V14.00,2013-05-14 09:18:00,
2013-05-14 05:28:00,32.2,29.7,30.16,SE,141,0.0,0.0,90,0.00,,SCT,0.00,VWS V14.00,2013-05-14 09:28:00,
2013-05-14 05:33:00,32.2,29.7,30.16,SE,141,0.0,0.0,90,0.00,,SCT,0.00,VWS V14.00,2013-05-14 09:33:00,
2013-05-14 05:38:00,32.2,29.7,30.16,SE,141,0.0,0.0,90,0.00,,SCT,0.00,VWS V14.00,2013-05-14 09:38:00,
2013-05-14 05:41:00,32.6,30.2,30.16,SE,141,0.0,0.0,91,0.00,,SCT,0.00,VWS V14.00,2013-05-14 09:41:00,
2013-05-14 05:43:00,32.6,30.2,30.16,SE,141,0.0,0.0,91,0.00,,SCT,0.00,VWS V14.00,2013-05-14 09:43:00,
2013-05-14 05:48:00,32.6,30.2,30.16,SE,141,0.0,0.0,91,0.00,,SCT,0.00,VWS V14.00,2013-05-14 09:48:00,
2013-05-14 06:00:00,33.1,30.4,30.16,SE,141,0.0,3.3,90,0.00,,SCT,0.00,VWS V14.00,2013-05-14 10:00:00,
2013-05-14 06:03:00,32.4,29.9,30.17,SE,141,0.0,0.0,90,0.00,,SCT,0.00,VWS V14.00,2013-05-14 10:03:00,
2013-05-14 06:08:00,32.7,30.3,30.17,South,190,0.0,0.0,91,0.00,,SCT,0.00,VWS V14.00,2013-05-14 10:08:00,
2013-05-14 06:13:00,32.7,30.3,30.17,South,190,0.0,0.0,91,0.00,,SCT,0.00,VWS V14.00,2013-05-14 10:13:00,
2013-05-14 06:16:00,33.0,30.5,30.18,South,190,0.0,0.0,90,0.00,,SCT,0.00,VWS V14.00,2013-05-14 10:16:00,
2013-05-14 06:18:00,33.0,30.5,30.18,South,190,0.0,0.0,90,0.00,,SCT,0.00,VWS V14.00,2013-05-14 10:18:00,
2013-05-14 06:23:00,33.0,30.5,30.18,South,190,0.0,0.0,90,0.00,,SCT,0.00,VWS V14.00,2013-05-14 10:23:00,
2013-05-14 06:30:00,32.2,29.7,30.16,SE,141,0.0,0.0,90,0.00,,SCT,0.00,VWS V14.00,2013-05-14 10:30:00,
2013-05-14 06:32:00,33.9,31.0,30.18,South,187,0.7,2.5,89,0.00,,SCT,0.00,VWS V14.00,2013-05-14 10:32:00,
2013-05-14 06:34:00,33.9,31.0,30.18,South,187,0.7,2.5,89,0.00,,SCT,0.00,VWS V14.00,2013-05-14 10:34:00,
2013-05-14 06:39:00,33.9,31.0,30.18,South,187,0.7,2.5,89,0.00,,SCT,0.00,VWS V14.00,2013-05-14 10:39:00,
2013-05-14 07:01:00,34.3,31.0,30.19,SSW,205,0.0,2.5,88,0.00,,SCT,0.00,VWS V14.00,2013-05-14 11:01:00,
2013-05-14 07:04:00,34.3,31.0,30.19,SSW,205,0.0,2.5,88,0.00,,SCT,0.00,VWS V14.00,2013-05-14 11:04:00,
2013-05-14 07:09:00,34.3,31.0,30.19,SSW,205,0.0,2.5,88,0.00,,SCT,0.00,VWS V14.00,2013-05-14 11:09:00,
2013-05-14 07:24:00,36.4,31.9,30.19,WSW,248,4.2,4.2,83,0.00,,SKC,0.00,VWS V14.00,2013-05-14 11:24:00,
2013-05-14 07:29:00,36.4,31.9,30.19,WSW,248,4.2,4.2,83,0.00,,SKC,0.00,VWS V14.00,2013-05-14 11:29:00,
2013-05-14 07:32:00,37.0,32.2,30.19,WSW,239,3.2,4.2,82,0.00,,SKC,0.00,VWS V14.00,2013-05-14 11:32:00,
2013-05-14 07:34:00,37.0,32.2,30.19,WSW,239,3.2,4.2,82,0.00,,SKC,0.00,VWS V14.00,2013-05-14 11:34:00,
2013-05-14 07:39:00,37.0,32.2,30.19,WSW,239,3.2,4.2,82,0.00,,SKC,0.00,VWS V14.00,2013-05-14 11:39:00,
2013-05-14 09:39:00,45.7,33.3,30.18,WSW,246,2.4,4.2,62,0.00,,SKC,0.00,VWS V14.00,2013-05-14 13:39:00,
2013-05-14 09:40:00,45.7,33.3,30.18,WSW,246,2.4,4.2,62,0.00,,SKC,0.00,VWS V14.00,2013-05-14 13:40:00,
2013-05-14 09:44:00,45.7,33.3,30.18,WSW,246,2.4,4.2,62,0.00,,SKC,0.00,VWS V14.00,2013-05-14 13:44:00,
2013-05-14 09:49:00,45.7,33.3,30.18,WSW,246,2.4,4.2,62,0.00,,SKC,0.00,VWS V14.00,2013-05-14 13:49:00,
2013-05-14 10:57:00,49.2,33.0,30.16,WSW,243,3.3,10.1,53,0.00,,SKC,0.00,VWS V14.00,2013-05-14 14:57:00,
2013-05-14 11:02:00,49.2,34.0,30.16,WSW,245,5.5,9.0,56,0.00,,SKC,0.00,VWS V14.00,2013-05-14 15:02:00,
2013-05-14 11:07:00,49.6,33.8,30.16,SSW,194,3.7,9.0,54,0.00,,SKC,0.00,VWS V14.00,2013-05-14 15:07:00,
2013-05-14 11:12:00,50.0,34.9,30.16,WNW,288,8.1,9.8,56,0.00,,SKC,0.00,VWS V14.00,2013-05-14 15:12:00,
2013-05-14 11:17:00,50.2,32.5,30.16,NNW,329,1.9,9.8,50,0.00,,SKC,0.00,VWS V14.00,2013-05-14 15:17:00,
2013-05-14 11:22:00,50.3,34.3,30.16,ESE,115,2.3,9.8,54,0.00,,SKC,0.00,VWS V14.00,2013-05-14 15:22:00,
2013-05-14 11:27:00,51.0,34.7,30.16,NNE,20,1.1,9.8,54,0.00,,SKC,0.00,VWS V14.00,2013-05-14 15:27:00,
2013-05-14 11:32:00,50.8,33.7,30.16,WSW,242,6.1,11.5,52,0.00,,SKC,0.00,VWS V14.00,2013-05-14 15:32:00,
2013-05-14 11:37:00,50.6,34.5,30.16,South,173,3.4,11.5,54,0.00,,SKC,0.00,VWS V14.00,2013-05-14 15:37:00,
2013-05-14 11:42:00,50.8,34.6,30.16,SE,134,4.4,11.5,54,0.00,,SKC,0.00,VWS V14.00,2013-05-14 15:42:00,
2013-05-14 11:47:00,51.0,30.9,30.16,WNW,285,0.0,11.5,46,0.00,,SKC,0.00,VWS V14.00,2013-05-14 15:47:00,
2013-05-14 11:52:00,51.4,31.8,30.16,WSW,240,5.5,11.6,47,0.00,,SKC,0.00,VWS V14.00,2013-05-14 15:52:00,
2013-05-14 11:57:00,51.6,31.2,30.16,West,263,7.2,11.6,46,0.00,,SKC,0.00,VWS V14.00,2013-05-14 15:57:00,
2013-05-14 12:00:00,49.1,33.0,30.16,SW,218,5.5,10.1,54,0.00,,SCT,0.00,VWS V14.00,2013-05-14 16:00:00,
2013-05-14 12:02:00,51.3,30.5,30.16,NW,321,3.7,5.4,45,0.00,,SKC,0.00,VWS V14.00,2013-05-14 16:02:00,
2013-05-14 12:07:00,51.0,30.4,30.16,SSW,210,2.5,9.1,45,0.00,,SKC,0.00,VWS V14.00,2013-05-14 16:07:00,
2013-05-14 12:12:00,50.8,30.1,30.16,WSW,257,6.4,9.1,45,0.00,,SKC,0.00,VWS V14.00,2013-05-14 16:12:00,
2013-05-14 12:17:00,51.2,29.8,30.16,SW,214,5.8,9.1,44,0.00,,SKC,0.00,VWS V14.00,2013-05-14 16:17:00,
2013-05-14 12:22:00,51.6,30.6,30.16,SW,225,5.0,9.1,44,0.00,,SKC,0.00,VWS V14.00,2013-05-14 16:22:00,
2013-05-14 12:27:00,51.2,28.9,30.16,SW,236,5.5,11.2,42,0.00,,SKC,0.00,VWS V14.00,2013-05-14 16:27:00,
2013-05-14 12:30:00,51.1,32.8,30.16,NNW,330,0.2,9.8,49,0.00,,SCT,0.00,VWS V14.00,2013-05-14 16:30:00,
2013-05-14 12:32:00,51.3,28.9,30.15,NW,305,2.2,9.6,42,0.00,,SCT,0.00,VWS V14.00,2013-05-14 16:32:00,
2013-05-14 12:37:00,51.7,28.8,30.15,NW,314,0.9,9.6,41,0.00,,SCT,0.00,VWS V14.00,2013-05-14 16:37:00,
2013-05-14 12:42:00,52.0,31.9,30.15,SW,233,5.5,9.6,46,0.00,,SCT,0.00,VWS V14.00,2013-05-14 16:42:00,
2013-05-14 12:47:00,51.4,29.0,30.15,WNW,298,4.7,12.7,42,0.00,,SCT,0.00,VWS V14.00,2013-05-14 16:47:00,
2013-05-14 12:52:00,51.5,30.6,30.15,WNW,285,1.9,12.7,44,0.00,,SCT,0.00,VWS V14.00,2013-05-14 16:52:00,
2013-05-14 12:57:00,51.4,28.6,30.15,West,263,6.4,12.7,41,0.00,,SCT,0.00,VWS V14.00,2013-05-14 16:57:00,
2013-05-14 13:00:00,51.6,31.0,30.16,WNW,302,5.0,11.6,45,0.00,,SCT,0.00,VWS V14.00,2013-05-14 17:00:00,
2013-05-14 13:02:00,51.6,29.2,30.15,NNW,335,0.0,2.6,42,0.00,,SCT,0.00,VWS V14.00,2013-05-14 17:02:00,
2013-05-14 13:07:00,51.9,31.1,30.15,WSW,242,5.3,8.9,45,0.00,,SCT,0.00,VWS V14.00,2013-05-14 17:07:00,
2013-05-14 13:12:00,52.1,31.6,30.15,NNW,330,2.7,9.0,45,0.00,,SCT,0.00,VWS V14.00,2013-05-14 17:12:00,
2013-05-14 13:17:00,52.4,31.2,30.15,NNW,347,1.3,9.0,44,0.00,,SCT,0.00,VWS V14.00,2013-05-14 17:17:00,
2013-05-14 13:22:00,52.5,31.3,30.14,WSW,238,3.4,12.9,44,0.00,,SCT,0.00,VWS V14.00,2013-05-14 17:22:00,
2013-05-14 13:27:00,52.8,30.0,30.14,SW,226,7.3,12.9,41,0.00,,SCT,0.00,VWS V14.00,2013-05-14 17:27:00,
2013-05-14 13:30:00,51.1,28.3,30.16,NW,307,3.5,11.2,41,0.00,,SCT,0.00,VWS V14.00,2013-05-14 17:30:00,
2013-05-14 13:32:00,52.1,29.3,30.14,SW,232,4.4,8.9,41,0.00,,SCT,0.00,VWS V14.00,2013-05-14 17:32:00,
2013-05-14 13:37:00,52.3,29.9,30.14,WSW,249,1.7,8.9,42,0.00,,SCT,0.00,VWS V14.00,2013-05-14 17:37:00,
2013-05-14 13:42:00,52.6,31.1,30.14,SSW,212,0.6,8.9,44,0.00,,SCT,0.00,VWS V14.00,2013-05-14 17:42:00,
2013-05-14 13:47:00,52.7,30.1,30.14,West,266,5.1,8.9,42,0.00,,SCT,0.00,VWS V14.00,2013-05-14 17:47:00,
2013-05-14 13:52:00,52.8,29.8,30.14,WSW,239,0.7,8.9,41,0.00,,SCT,0.00,VWS V14.00,2013-05-14 17:52:00,
2013-05-14 13:57:00,52.8,30.2,30.14,SSW,201,2.9,10.3,42,0.00,,SCT,0.00,VWS V14.00,2013-05-14 17:57:00,
2013-05-14 14:00:00,51.4,28.8,30.15,WSW,253,1.5,12.7,42,0.00,,SCT,0.00,VWS V14.00,2013-05-14 18:00:00,
2013-05-14 14:02:00,52.7,31.3,30.14,SW,226,7.3,11.2,44,0.00,,SCT,0.00,VWS V14.00,2013-05-14 18:02:00,
2013-05-14 14:07:00,52.3,30.1,30.14,WNW,285,6.8,11.2,42,0.00,,SCT,0.00,VWS V14.00,2013-05-14 18:07:00,
2013-05-14 14:12:00,52.0,30.0,30.14,West,273,3.0,11.2,43,0.00,,SCT,0.00,VWS V14.00,2013-05-14 18:12:00,
2013-05-14 14:17:00,52.2,30.0,30.13,SW,214,0.0,11.2,42,0.00,,SCT,0.00,VWS V14.00,2013-05-14 18:17:00,
2013-05-14 14:22:00,52.8,30.8,30.13,SW,228,2.8,11.2,43,0.00,,SCT,0.00,VWS V14.00,2013-05-14 18:22:00,
2013-05-14 14:27:00,53.0,28.9,30.13,SW,233,3.0,11.2,39,0.00,,SCT,0.00,VWS V14.00,2013-05-14 18:27:00,
2013-05-14 14:30:00,52.7,30.1,30.14,West,278,6.9,12.9,42,0.00,,SCT,0.00,VWS V14.00,2013-05-14 18:30:00,
2013-05-14 14:32:00,52.9,30.4,30.13,WSW,256,4.4,7.5,42,0.00,,SCT,0.00,VWS V14.00,2013-05-14 18:32:00,
2013-05-14 14:37:00,53.3,32.3,30.13,WSW,257,4.8,8.5,45,0.00,,SCT,0.00,VWS V14.00,2013-05-14 18:37:00,
2013-05-14 14:42:00,53.7,30.3,30.13,WNW,298,6.2,8.9,41,0.00,,SCT,0.00,VWS V14.00,2013-05-14 18:42:00,
2013-05-14 14:47:00,53.7,29.7,30.13,WSW,250,8.0,10.4,40,0.00,,SCT,0.00,VWS V14.00,2013-05-14 18:47:00,
2013-05-14 14:52:00,53.5,29.3,30.13,SSW,200,4.9,10.4,39,0.00,,SCT,0.00,VWS V14.00,2013-05-14 18:52:00,
2013-05-14 14:57:00,53.1,29.9,30.13,West,270,9.8,10.4,41,0.00,,SCT,0.00,VWS V14.00,2013-05-14 18:57:00,
2013-05-14 15:00:00,53.0,30.1,30.14,South,177,7.0,10.3,41,0.00,,SCT,0.00,VWS V14.00,2013-05-14 19:00:00,
2013-05-14 15:02:00,52.8,30.6,30.12,WSW,257,8.8,10.3,42,0.00,,SCT,0.00,VWS V14.00,2013-05-14 19:02:00,
2013-05-14 15:07:00,53.2,29.4,30.12,West,260,4.8,10.3,40,0.00,,SCT,0.00,VWS V14.00,2013-05-14 19:07:00,
2013-05-14 15:12:00,53.9,29.0,30.12,WNW,285,4.9,10.6,38,0.00,,SCT,0.00,VWS V14.00,2013-05-14 19:12:00,
2013-05-14 15:17:00,53.6,30.9,30.12,NW,304,4.2,11.1,42,0.00,,SCT,0.00,VWS V14.00,2013-05-14 19:17:00,
2013-05-14 15:22:00,54.5,30.9,30.12,SSW,211,6.5,11.1,40,0.00,,SCT,0.00,VWS V14.00,2013-05-14 19:22:00,
2013-05-14 15:27:00,54.9,30.9,30.11,SW,225,7.2,12.1,40,0.00,,SCT,0.00,VWS V14.00,2013-05-14 19:27:00,
2013-05-14 15:30:00,52.8,29.0,30.13,West,277,4.2,11.2,40,0.00,,SCT,0.00,VWS V14.00,2013-05-14 19:30:00,
2013-05-14 15:32:00,55.3,32.1,30.11,SW,218,4.5,8.1,41,0.00,,SCT,0.00,VWS V14.00,2013-05-14 19:32:00,
2013-05-14 15:37:00,54.9,29.5,30.11,SSW,211,2.7,11.4,38,0.00,,SCT,0.00,VWS V14.00,2013-05-14 19:37:00,
2013-05-14 15:42:00,54.8,30.5,30.10,WSW,255,5.6,12.6,39,0.00,,SCT,0.00,VWS V14.00,2013-05-14 19:42:00,
2013-05-14 15:47:00,54.7,30.3,30.10,SW,235,3.7,12.6,39,0.00,,SCT,0.00,VWS V14.00,2013-05-14 19:47:00,
2013-05-14 15:52:00,54.4,30.0,30.10,WNW,285,7.1,12.6,39,0.00,,SCT,0.00,VWS V14.00,2013-05-14 19:52:00,
2013-05-14 15:57:00,54.0,31.0,30.10,WNW,285,2.7,12.6,41,0.00,,SCT,0.00,VWS V14.00,2013-05-14 19:57:00,
2013-05-14 16:00:00,53.2,29.4,30.12,WNW,288,9.4,10.4,40,0.00,,SCT,0.00,VWS V14.00,2013-05-14 20:00:00,
2013-05-14 16:03:00,53.5,29.2,30.10,West,263,2.2,8.5,39,0.00,,SCT,0.00,VWS V14.00,2013-05-14 20:03:00,
2013-05-14 16:08:00,53.8,29.4,30.10,SW,222,4.8,9.1,39,0.00,,SCT,0.00,VWS V14.00,2013-05-14 20:08:00,
2013-05-14 16:13:00,54.5,30.3,30.09,South,170,5.2,9.8,39,0.00,,SCT,0.00,VWS V14.00,2013-05-14 20:13:00,
2013-05-14 16:18:00,55.2,31.6,30.09,West,278,5.5,9.8,40,0.00,,SCT,0.00,VWS V14.00,2013-05-14 20:18:00,
2013-05-14 16:23:00,54.8,29.3,30.09,South,181,2.4,9.8,37,0.00,,SCT,0.00,VWS V14.00,2013-05-14 20:23:00,
2013-05-14 16:28:00,55.0,28.1,30.09,West,280,6.3,10.0,35,0.00,,SCT,0.00,VWS V14.00,2013-05-14 20:28:00,
2013-05-14 16:30:00,54.8,30.3,30.11,SW,232,8.1,12.1,39,0.00,,SCT,0.00,VWS V14.00,2013-05-14 20:30:00,
2013-05-14 16:33:00,54.4,29.5,30.09,WSW,238,6.2,7.6,38,0.00,,SCT,0.00,VWS V14.00,2013-05-14 20:33:00,
2013-05-14 16:38:00,54.1,29.5,30.09,WSW,256,4.8,7.6,39,0.00,,SCT,0.00,VWS V14.00,2013-05-14 20:38:00,
2013-05-14 16:43:00,54.1,29.3,30.09,SSW,200,5.0,7.6,38,0.00,,SCT,0.00,VWS V14.00,2013-05-14 20:43:00,
2013-05-14 16:48:00,54.2,29.9,30.08,West,262,3.1,7.6,39,0.00,,SCT,0.00,VWS V14.00,2013-05-14 20:48:00,
2013-05-14 16:53:00,54.8,29.3,30.08,SW,226,6.8,7.8,37,0.00,,SCT,0.00,VWS V14.00,2013-05-14 20:53:00,
2013-05-14 16:58:00,55.1,30.8,30.08,West,267,3.5,9.6,39,0.00,,SCT,0.00,VWS V14.00,2013-05-14 20:58:00,
2013-05-14 17:00:00,54.0,31.3,30.10,West,278,2.9,12.6,42,0.00,,SCT,0.00,VWS V14.00,2013-05-14 21:00:00,
2013-05-14 17:03:00,55.7,30.0,30.08,SSE,158,6.4,8.2,37,0.00,,SCT,0.00,VWS V14.00,2013-05-14 21:03:00,
2013-05-14 17:08:00,55.9,30.3,30.08,SW,231,3.7,8.2,37,0.00,,SCT,0.00,VWS V14.00,2013-05-14 21:08:00,
2013-05-14 17:13:00,56.4,31.5,30.08,SSE,156,5.0,8.2,38,0.00,,SCT,0.00,VWS V14.00,2013-05-14 21:13:00,
2013-05-14 17:18:00,56.2,29.1,30.08,West,274,3.5,9.4,35,0.00,,SCT,0.00,VWS V14.00,2013-05-14 21:18:00,
2013-05-14 17:23:00,55.7,28.6,30.08,West,271,2.2,9.4,35,0.00,,SCT,0.00,VWS V14.00,2013-05-14 21:23:00,
2013-05-14 17:28:00,55.7,28.9,30.08,WSW,243,6.8,9.4,36,0.00,,SCT,0.00,VWS V14.00,2013-05-14 21:28:00,
2013-05-14 17:30:00,55.0,28.1,30.09,West,262,6.3,10.0,35,0.00,,SCT,0.00,VWS V14.00,2013-05-14 21:30:00,
2013-05-14 17:33:00,55.5,29.2,30.08,WNW,290,4.0,7.5,36,0.00,,SCT,0.00,VWS V14.00,2013-05-14 21:33:00,
2013-05-14 17:38:00,55.1,28.7,30.08,WSW,246,2.0,9.1,36,0.00,,SCT,0.00,VWS V14.00,2013-05-14 21:38:00,
2013-05-14 17:43:00,55.4,29.6,30.08,WNW,301,2.4,9.1,37,0.00,,SCT,0.00,VWS V14.00,2013-05-14 21:43:00,
2013-05-14 17:48:00,55.7,30.0,30.08,WSW,239,3.2,9.1,37,0.00,,SCT,0.00,VWS V14.00,2013-05-14 21:48:00,
2013-05-14 17:53:00,55.9,30.4,30.07,SW,221,4.2,9.1,38,0.00,,SCT,0.00,VWS V14.00,2013-05-14 21:53:00,
2013-05-14 17:58:00,55.8,31.9,30.07,SW,225,8.2,9.2,40,0.00,,SCT,0.00,VWS V14.00,2013-05-14 21:58:00,
2013-05-14 18:00:00,55.1,30.8,30.08,West,260,3.4,9.6,39,0.00,,SCT,0.00,VWS V14.00,2013-05-14 22:00:00,
2013-05-14 18:03:00,55.9,31.5,30.07,SW,224,4.1,8.3,39,0.00,,SCT,0.00,VWS V14.00,2013-05-14 22:03:00,
2013-05-14 18:08:00,56.0,31.6,30.08,SSE,150,2.5,8.3,39,0.00,,SCT,0.00,VWS V14.00,2013-05-14 22:08:00,
2013-05-14 18:13:00,55.8,29.5,30.07,West,273,2.5,8.3,36,0.00,,SCT,0.00,VWS V14.00,2013-05-14 22:13:00,
2013-05-14 18:18:00,55.9,30.4,30.07,WSW,253,5.9,8.3,38,0.00,,SCT,0.00,VWS V14.00,2013-05-14 22:18:00,
2013-05-14 18:23:00,55.9,30.0,30.07,SW,217,0.7,8.5,37,0.00,,SCT,0.00,VWS V14.00,2013-05-14 22:23:00,
2013-05-14 18:28:00,55.8,29.7,30.07,West,262,1.7,1.7,37,0.00,,SCT,0.00,VWS V14.00,2013-05-14 22:28:00,
2013-05-14 18:30:00,55.7,28.9,30.08,WSW,243,6.8,9.4,36,0.00,,SCT,0.00,VWS V14.00,2013-05-14 22:30:00,
2013-05-14 18:33:00,55.5,29.7,30.07,West,267,2.2,3.1,37,0.00,,SCT,0.00,VWS V14.00,2013-05-14 22:33:00,
2013-05-14 18:38:00,55.6,30.7,30.07,SSW,207,0.0,4.0,38,0.00,,SCT,0.00,VWS V14.00,2013-05-14 22:38:00,
2013-05-14 18:43:00,55.5,29.1,30.07,West,269,1.7,6.2,36,0.00,,SCT,0.00,VWS V14.00,2013-05-14 22:43:00,
2013-05-14 18:48:00,55.5,30.6,30.07,SSW,193,2.4,6.2,38,0.00,,SCT,0.00,VWS V14.00,2013-05-14 22:48:00,
2013-05-14 18:53:00,55.0,31.6,30.07,South,177,9.1,10.6,41,0.00,,SCT,0.00,VWS V14.00,2013-05-14 22:53:00,
2013-05-14 18:58:00,54.5,30.9,30.08,WSW,239,5.5,5.5,40,0.00,,SCT,0.00,VWS V14.00,2013-05-14 22:58:00,
2013-05-14 19:00:00,55.8,31.9,30.07,SW,225,8.2,9.2,40,0.00,,SCT,0.00,VWS V14.00,2013-05-14 23:00:00,
2013-05-14 19:03:00,54.2,31.1,30.08,West,259,8.2,9.1,41,0.00,,SCT,0.00,VWS V14.00,2013-05-14 23:03:00,
2013-05-14 19:08:00,53.9,30.5,30.07,SW,235,2.0,11.4,41,0.00,,SCT,0.00,VWS V14.00,2013-05-14 23:08:00,
2013-05-14 19:13:00,53.6,31.0,30.07,SSW,193,5.4,11.4,42,0.00,,SCT,0.00,VWS V14.00,2013-05-14 23:13:00,
2013-05-14 19:18:00,53.6,30.9,30.07,SSW,210,3.2,11.4,42,0.00,,SCT,0.00,VWS V14.00,2013-05-14 23:18:00,
2013-05-14 19:23:00,53.7,31.0,30.07,WSW,243,5.3,11.4,42,0.00,,SCT,0.00,VWS V14.00,2013-05-14 23:23:00,
2013-05-14 19:28:00,53.2,30.7,30.07,SSW,195,1.5,4.8,42,0.00,,SCT,0.00,VWS V14.00,2013-05-14 23:28:00,
2013-05-14 19:30:00,55.6,29.6,30.07,WNW,285,0.8,8.5,37,0.00,,SCT,0.00,VWS V14.00,2013-05-14 23:30:00,
2013-05-14 19:33:00,52.9,31.2,30.07,WSW,246,7.0,11.7,43,0.00,,SCT,0.00,VWS V14.00,2013-05-14 23:33:00,
2013-05-14 19:38:00,52.7,29.7,30.08,WSW,255,4.5,11.7,41,0.00,,SCT,0.00,VWS V14.00,2013-05-14 23:38:00,
2013-05-14 19:43:00,52.3,29.8,30.07,South,174,5.5,11.7,42,0.00,,SCT,0.00,VWS V14.00,2013-05-14 23:43:00,
2013-05-14 19:48:00,52.2,30.2,30.07,SW,236,3.4,11.7,43,0.00,,SCT,0.00,VWS V14.00,2013-05-14 23:48:00,
2013-05-14 19:53:00,51.9,30.1,30.07,SSW,212,2.1,11.7,43,0.00,,SCT,0.00,VWS V14.00,2013-05-14 23:53:00,
2013-05-14 19:58:00,51.6,30.4,30.08,SW,219,2.1,3.0,44,0.00,,SCT,0.00,VWS V14.00,2013-05-14 23:58:00,
2013-05-14 20:00:00,54.5,31.1,30.08,SSW,211,4.5,10.6,41,0.00,,SCT,0.00,VWS V14.00,2013-05-15 00:00:00,
2013-05-14 20:03:00,51.4,30.4,30.07,SW,221,4.3,6.7,44,0.00,,SCT,0.00,VWS V14.00,2013-05-15 00:03:00,
2013-05-14 20:08:00,51.1,30.7,30.07,SW,225,1.6,6.7,45,0.00,,SCT,0.00,VWS V14.00,2013-05-15 00:08:00,
2013-05-14 20:13:00,50.7,30.4,30.07,West,263,1.2,6.7,45,0.00,,SCT,0.00,VWS V14.00,2013-05-15 00:13:00,
2013-05-14 20:18:00,50.3,30.1,30.07,SSW,202,2.5,6.7,46,0.00,,SCT,0.00,VWS V14.00,2013-05-15 00:18:00,
2013-05-14 20:23:00,50.0,30.0,30.07,SSW,210,1.3,6.7,46,0.00,,SCT,0.00,VWS V14.00,2013-05-15 00:23:00,
2013-05-14 20:28:00,49.5,30.1,30.07,WSW,246,2.7,3.2,47,0.00,,SCT,0.00,VWS V14.00,2013-05-15 00:28:00,
2013-05-14 20:30:00,53.3,30.8,30.07,SW,231,4.8,11.4,42,0.00,,SCT,0.00,VWS V14.00,2013-05-15 00:30:00,
2013-05-14 20:33:00,49.2,30.2,30.08,WSW,238,0.0,3.2,48,0.00,,SCT,0.00,VWS V14.00,2013-05-15 00:33:00,
2013-05-14 20:38:00,48.9,30.2,30.08,WSW,238,0.0,3.2,48,0.00,,SCT,0.00,VWS V14.00,2013-05-15 00:38:00,
2013-05-14 20:43:00,48.4,29.9,30.08,South,170,0.0,3.2,49,0.00,,SCT,0.00,VWS V14.00,2013-05-15 00:43:00,
2013-05-14 20:48:00,48.2,30.0,30.08,South,170,0.0,3.2,49,0.00,,SCT,0.00,VWS V14.00,2013-05-15 00:48:00,
2013-05-14 20:53:00,47.8,30.3,30.08,South,170,0.0,3.2,50,0.00,,SCT,0.00,VWS V14.00,2013-05-15 00:53:00,
2013-05-14 20:58:00,47.5,30.2,30.08,South,170,0.0,0.0,51,0.00,,SCT,0.00,VWS V14.00,2013-05-15 00:58:00,
2013-05-14 21:00:00,51.6,30.3,30.08,WSW,238,3.0,11.7,44,0.00,,SCT,0.00,VWS V14.00,2013-05-15 01:00:00,
2013-05-14 21:03:00,47.2,29.9,30.08,South,170,0.0,0.0,51,0.00,,SCT,0.00,VWS V14.00,2013-05-15 01:03:00,
2013-05-14 21:08:00,47.0,30.0,30.08,South,170,0.0,0.0,51,0.00,,SCT,0.00,VWS V14.00,2013-05-15 01:08:00,
2013-05-14 21:13:00,46.7,29.9,30.08,South,191,0.0,1.9,52,0.00,,SCT,0.00,VWS V14.00,2013-05-15 01:13:00,
2013-05-14 21:18:00,46.7,29.8,30.09,SW,224,0.0,5.2,52,0.00,,SCT,0.00,VWS V14.00,2013-05-15 01:18:00,
2013-05-14 21:23:00,46.7,29.8,30.08,South,174,0.0,5.2,52,0.00,,SCT,0.00,VWS V14.00,2013-05-15 01:23:00,
2013-05-14 21:28:00,46.3,29.4,30.09,South,174,0.0,0.0,52,0.00,,SCT,0.00,VWS V14.00,2013-05-15 01:28:00,
2013-05-14 21:30:00,49.6,30.2,30.07,WSW,243,2.4,6.7,47,0.00,,SCT,0.00,VWS V14.00,2013-05-15 01:30:00,
2013-05-14 21:33:00,46.2,29.7,30.09,South,174,0.0,0.0,52,0.00,,SCT,0.00,VWS V14.00,2013-05-15 01:33:00,
2013-05-14 21:38:00,45.9,29.4,30.09,South,174,0.0,0.0,52,0.00,,SCT,0.00,VWS V14.00,2013-05-15 01:38:00,
2013-05-14 21:43:00,45.6,29.5,30.09,South,174,0.0,0.0,53,0.00,,SCT,0.00,VWS V14.00,2013-05-15 01:43:00,
2013-05-14 21:48:00,45.2,29.1,30.09,South,174,0.0,0.0,53,0.00,,SCT,0.00,VWS V14.00,2013-05-15 01:48:00,
2013-05-14 21:53:00,45.2,29.2,30.09,South,174,0.0,0.0,53,0.00,,SCT,0.00,VWS V14.00,2013-05-15 01:53:00,
2013-05-14 21:58:00,45.1,29.3,30.09,South,174,0.0,0.0,54,0.00,,SCT,0.00,VWS V14.00,2013-05-15 01:58:00,
2013-05-14 22:00:00,47.5,30.1,30.08,South,170,0.0,3.2,51,0.00,,SCT,0.00,VWS V14.00,2013-05-15 02:00:00,
2013-05-14 22:03:00,44.8,29.5,30.09,South,174,0.0,0.0,55,0.00,,SCT,0.00,VWS V14.00,2013-05-15 02:03:00,
2013-05-14 22:08:00,44.4,29.0,30.09,South,174,0.0,0.0,54,0.00,,SCT,0.00,VWS V14.00,2013-05-15 02:08:00,
2013-05-14 22:13:00,44.3,29.1,30.09,South,174,0.0,0.0,55,0.00,,SCT,0.00,VWS V14.00,2013-05-15 02:13:00,
2013-05-14 22:18:00,44.4,29.4,30.09,South,174,0.0,0.0,55,0.00,,SCT,0.00,VWS V14.00,2013-05-15 02:18:00,
2013-05-14 22:23:00,44.1,29.5,30.09,South,174,0.0,0.0,56,0.00,,SCT,0.00,VWS V14.00,2013-05-15 02:23:00,
2013-05-14 22:28:00,43.7,29.6,30.09,South,174,0.0,0.0,57,0.00,,SCT,0.00,VWS V14.00,2013-05-15 02:28:00,
2013-05-14 22:30:00,46.6,29.6,30.08,South,174,0.0,5.2,51,0.00,,SCT,0.00,VWS V14.00,2013-05-15 02:30:00,
2013-05-14 22:33:00,43.1,29.6,30.09,South,174,0.0,0.0,59,0.00,,SCT,0.00,VWS V14.00,2013-05-15 02:33:00,
2013-05-14 22:38:00,43.0,29.8,30.09,South,176,2.4,2.4,59,0.00,,SCT,0.00,VWS V14.00,2013-05-15 02:38:00,
2013-05-14 22:43:00,42.8,29.4,30.09,South,184,0.0,2.8,59,0.00,,SCT,0.00,VWS V14.00,2013-05-15 02:43:00,
2013-05-14 22:48:00,42.8,29.2,30.09,South,184,0.0,2.8,58,0.00,,SCT,0.00,VWS V14.00,2013-05-15 02:48:00,
2013-05-14 22:54:00,42.6,29.1,30.09,South,184,0.0,2.8,59,0.00,,SCT,0.00,VWS V14.00,2013-05-15 02:54:00,
2013-05-14 22:59:00,42.3,29.0,30.09,South,184,0.0,0.0,59,0.00,,SCT,0.00,VWS V14.00,2013-05-15 02:59:00,
2013-05-14 23:00:00,45.1,29.3,30.09,South,174,0.0,0.0,54,0.00,,SCT,0.00,VWS V14.00,2013-05-15 03:00:00,
2013-05-14 23:04:00,42.4,29.2,30.09,South,184,0.0,0.0,59,0.00,,SCT,0.00,VWS V14.00,2013-05-15 03:04:00,
2013-05-14 23:09:00,42.2,29.1,30.09,South,184,0.0,0.0,60,0.00,,SCT,0.00,VWS V14.00,2013-05-15 03:09:00,
2013-05-14 23:14:00,42.1,29.1,30.09,South,184,0.0,0.0,60,0.00,,SCT,0.00,VWS V14.00,2013-05-15 03:14:00,
2013-05-14 23:19:00,41.8,29.8,30.09,South,184,0.0,0.0,62,0.00,,SCT,0.00,VWS V14.00,2013-05-15 03:19:00,
2013-05-14 23:24:00,41.2,29.6,30.09,South,184,0.0,0.0,63,0.00,,SCT,0.00,VWS V14.00,2013-05-15 03:24:00,
2013-05-14 23:29:00,40.7,29.3,30.08,South,184,0.0,0.0,64,0.00,,SCT,0.00,VWS V14.00,2013-05-15 03:29:00,
2013-05-14 23:30:00,43.7,29.5,30.09,South,174,0.0,0.0,57,0.00,,SCT,0.00,VWS V14.00,2013-05-15 03:30:00,
2013-05-14 23:34:00,40.6,29.2,30.08,South,184,0.0,0.0,63,0.00,,SCT,0.00,VWS V14.00,2013-05-15 03:34:00,
2013-05-14 23:39:00,40.4,29.4,30.08,South,184,0.0,0.0,64,0.00,,SCT,0.00,VWS V14.00,2013-05-15 03:39:00,
2013-05-14 23:44:00,40.0,29.9,30.08,South,184,0.0,0.0,67,0.00,,SCT,0.00,VWS V14.00,2013-05-15 03:44:00,
2013-05-14 23:49:00,39.7,29.8,30.08,South,184,0.0,0.0,67,0.00,,SCT,0.00,VWS V14.00,2013-05-15 03:49:00,
2013-05-14 23:54:00,39.2,29.6,30.08,South,184,0.0,0.0,68,0.00,,SCT,0.00,VWS V14.00,2013-05-15 03:54:00,